Location: Home
(42.5358°N, 72.7383°W)
Time: 17:57:17
(UTC-05:00)

Tiros 1 - Pass Details

Date: 29 November 2021
Orbit: 629 x 664 km, 48.4° (Epoch: 18 January)

Event Time Altitude Azimuth Distance (km) Brightness Sun altitude
Rises 18:12:05 0° 186° (S) 2,908 10.7 -20.3°
Reaches altitude 10° 18:15:31 10° 160° (SSE) 2,012 9.6 -20.9°
Enters shadow 18:16:06 11° 153° (SSE) 1,918 9.4 -21.0°
Maximum altitude 18:17:43 13° 131° (SE) 1,806 - -21.3°
Drops below altitude 10° 18:19:55 10° 103° (ESE) 2,027 - -21.7°
Sets 18:23:24 0° 76° (ENE) 2,950 - -22.3°
